{"data":{"norad_id":66857,"epoch":"2026-05-24T19:24:32.380704Z","epoch_age_seconds":87517,"freshness":"FRESH","line1":"1 66857U 25281K   26144.80870811  .00021573  00000+0  79094-3 0  9999","line2":"2 66857  43.0028 273.8851 0001572 279.9378  80.1296 15.27590126 27828","mean_motion":15.27590126,"eccentricity":0.0001572,"inclination_deg":43.0028,"raan_deg":273.8851,"arg_perigee_deg":279.9378,"mean_anomaly_deg":80.1296,"bstar":0.00079094,"rev_number":2782,"period_min":94.266123843746,"perigee_km":481.94020163245,"apogee_km":484.09734900822,"semimajor_km":6861.1557753203,"source":"CELESTRAK","updated_at":"2026-05-25T13:38:21.341770Z"}}